Regional Weather Roundup
Issued by NWS

Home | Current Version | Previous Version | Text Only | Print | Product List | Glossary Off
Versions: 1 2 3 4 5 6 7 8 9 10 11 12 13 14 15 16 17 18 19 20 21 22 23 24 25 26 27 28 29 30 31 32 33 34 35 36 37 38 39 40 41 42 43 44 45 46 47 48 49 50

000
ASUS43 KBIS 020520
RWRND

NORTH DAKOTA REGIONAL WEATHER ROUNDUP
NATIONAL WEATHER SERVICE BISMARCK ND
1200 AM CDT TUE SEP 02 2014

NOTE: "FAIR" INDICATES FEW OR NO CLOUDS BELOW 12,000 FEET WITH NO
SIGNIFICANT WEATHER AND/OR OBSTRUCTIONS TO VISIBILITY.


NDZ001>003-009>011-017-020600-
NORTHWEST NORTH DAKOTA

CITY           SKY/WX    TMP DP  RH WIND       PRES   REMARKS
WILLISTON      PTCLDY    55  49  80 SW5       29.82F
MINOT          CLEAR     55  47  74 SW9       29.80F
MINOT AFB      CLEAR     50  49  97 W7        29.80S
$$

NDZ018>021-031>035-040>046-020600-
SOUTHWEST NORTH DAKOTA

CITY           SKY/WX    TMP DP  RH WIND       PRES   REMARKS
BISMARCK       CLEAR     55  50  83 SW5       29.87R
DICKINSON      CLEAR     51  45  79 S10       29.88S
GARRISON         N/A     53  51  93 W6        29.84R
HETTINGER ARPT CLEAR     52  45  77 CALM      29.93S
$$

NDZ004>008-012>016-024-026-027-054-020600-
NORTHEAST NORTH DAKOTA

CITY           SKY/WX    TMP DP  RH WIND       PRES   REMARKS
GRAND FORKS    CLEAR     55  50  83 SW5       29.76F
GRND FRKS AFB  CLEAR     52  52  99 W6        29.78S
DEVILS LAKE    CLEAR     61  48  63 SW9       29.78S
$$

NDZ022-023-025-028>030-036>039-047>053-020600-
SOUTHEAST NORTH DAKOTA

CITY           SKY/WX    TMP DP  RH WIND       PRES   REMARKS
FARGO          PTCLDY    57  53  86 S6        29.80S
JAMESTOWN      CLEAR     55  49  80 W3        29.82F
$$




USA.gov is the U.S. government's official web portal to all federal, state and local government web resources and services.